Tracking 19125 objects as of 19-Apr-2018
HD Live streaming from Space Station
objects crossing your sky now

PEGASUS

Track PEGASUS now!
10-day predictions
PEGASUS is classified as:


NORAD ID: 42784
Int'l Code: 2017-036V
Perigee: 501.0 km
Apogee: 515.8 km
Inclination: 97.4 °
Period: 94.6 minutes
Semi major axis: 6879 km
RCS: Unknown
Launch date: June 23, 2017
Source: (ASRA)
Launch site: SRIHARIKOTA (SRI)
Uplink (MHz):
Downlink (MHz): 436.670
Beacon (MHz):
Mode: 9600bps GMSK
Call sign: ON03AT
Status: Active

aabbcc
Your satellite tracking list
Your tracking list is empty




NASA's NSSDC Master Catalog

Two Line Element Set (TLE):
1 42784U 17036V   18108.86254373 +.00001216 +00000-0 +57063-4 0  9993
2 42784 097.4072 169.5936 0010747 286.6985 073.3071 15.21505294045495
Source of the keplerian elements: AFSPC